KM4KMO-14 Weather Reports


time (UTC)temp
F
wind
direction
speed
knots
gust
knots
rain 1hr
in
rain 24hr
in
rain mn
in
humidity
%
barometer
mb
20260906130646 75 245 0.0 0.0 0.00 0.10 0.00 93 1009.9
20260906125146 74 245 0.0 0.0 0.00 0.10 0.00 94 1009.8
20260906123646 74 245 0.0 0.0 0.00 0.10 0.00 95 1009.7
20260906122146 74 245 0.0 0.0 0.00 0.10 0.00 95 1009.5
20260906120646 73 245 0.0 0.0 0.00 0.10 0.00 94 1009.4
20260906115146 73 245 0.0 0.0 0.00 0.10 0.00 93 1009.3
20260906113646 73 245 0.0 0.0 0.00 0.10 0.00 93 1009.2
20260906112146 73 245 0.0 0.0 0.00 0.10 0.00 93 1009.0
20260906110646 74 245 0.0 0.0 0.00 0.10 0.00 93 1008.7
20260906105146 74 245 0.0 0.0 0.00 0.10 0.00 92 1008.4
20260906103646 74 245 0.0 0.0 0.00 0.10 0.00 92 1008.5
20260906102147 75 245 0.0 0.0 0.00 0.10 0.00 91 1008.5
20260906100646 75 245 0.0 0.0 0.00 0.10 0.00 90 1008.5
20260906095147 75 245 0.0 0.0 0.00 0.10 0.00 91 1008.6
20260906093647 75 234 0.0 0.0 0.00 0.10 0.00 90 1008.6
20260906092147 76 234 0.0 0.0 0.00 0.10 0.00 88 1008.9
20260906090647 76 84 0.0 0.9 0.00 0.10 0.00 87 1008.9
20260906085147 76 84 0.0 0.9 0.00 0.10 0.00 87 1009.1
20260906083647 75 73 0.0 0.9 0.00 0.10 0.00 89 1009.3
20260906082147 74 50 0.0 0.9 0.00 0.10 0.00 94 1009.4
20260906080647 75 32 0.0 0.0 0.00 0.10 0.00 95 1009.2
20260906075147 75 32 0.0 0.0 0.00 0.10 0.00 95 1009.0
20260906073647 75 32 0.0 0.0 0.00 0.10 0.00 95 1008.5
20260906072147 74 32 0.0 0.0 0.00 0.10 0.00 95 1008.5
20260906070647 74 32 0.0 0.0 0.00 0.10 0.00 95 1008.9
20260906065147 74 66 0.0 0.0 0.00 0.10 0.00 95 1009.2
20260906063647 74 67 0.0 0.0 0.00 0.10 0.00 96 1009.0
20260906062147 74 66 0.0 0.0 0.00 0.10 0.00 96 1009.3
20260906060647 74 66 0.0 0.0 0.00 0.10 0.00 97 1009.2
20260906055147 74 66 0.0 0.0 0.00 0.10 0.00 97 1009.0
20260906053647 74 66 0.0 0.0 0.00 0.10 0.00 97 1008.9
20260906052147 74 67 0.0 0.0 0.00 0.10 0.00 97 1008.9
20260906050647 74 66 0.0 0.0 0.00 0.10 0.00 97 1009.1
20260906045147 75 66 0.0 0.0 0.00 0.10 0.00 97 1009.2
20260906043647 75 66 0.0 0.0 0.00 0.10 0.00 97 1009.5
20260906042147 75 66 0.0 0.0 0.00 0.10 0.00 97 1009.5
20260906040647 75 67 0.0 0.0 0.00 0.10 0.00 96 1009.5
20260906035148 75 66 0.0 0.0 0.00 0.10 0.10 96 1009.4
20260906033647 76 66 0.0 0.0 0.00 0.10 0.10 96 1009.5
20260906032148 76 66 0.0 0.0 0.00 0.10 0.10 96 1009.6
20260906030648 76 66 0.0 0.0 0.00 0.10 0.10 96 1009.6
20260906025148 76 66 0.0 0.0 0.00 0.10 0.10 96 1009.6
20260906023648 76 66 0.0 0.0 0.00 0.10 0.10 95 1009.1
20260906022148 76 66 0.0 0.0 0.00 0.10 0.10 94 1008.9
20260906020648 77 66 0.0 0.0 0.00 0.10 0.10 94 1008.8
20260906015148 77 66 0.0 0.0 0.00 0.10 0.10 93 1008.8
20260906013648 77 66 0.0 0.0 0.00 0.10 0.10 93 1008.6
20260906012148 77 66 0.0 0.0 0.00 0.10 0.10 92 1008.3
20260906010648 77 66 0.0 0.0 0.00 0.10 0.10 91 1008.5
20260906005148 78 66 0.0 0.0 0.00 0.10 0.10 91 1008.3
20260906003648 78 66 0.0 0.0 0.00 0.10 0.10 90 1008.1
20260906002148 78 66 0.0 0.0 0.00 0.10 0.10 89 1008.0
20260906000648 79 66 0.0 0.0 0.00 0.10 0.10 88 1008.0
20260905235148 80 66 0.0 0.0 0.00 0.10 0.10 85 1008.4
20260905233648 80 66 0.0 0.0 0.00 0.10 0.10 85 1008.2
20260905232148 81 66 0.0 0.0 0.00 0.10 0.10 83 1008.1
20260905230648 81 67 0.0 0.0 0.00 0.10 0.10 84 1007.7
20260905225148 81 66 0.0 0.0 0.00 0.10 0.10 81 1007.8
20260905223648 82 66 0.0 0.0 0.00 0.10 0.10 82 1007.8
20260905222148 83 66 0.0 0.0 0.00 0.10 0.10 80 1008.0
20260905220648 85 66 0.0 0.0 0.00 0.10 0.10 78 1008.2
20260905215148 86 66 0.0 0.0 0.00 0.10 0.10 73 1008.4
20260905213648 85 250 0.0 1.7 0.00 0.10 0.10 80 1008.5
20260905212149 83 135 0.0 0.0 0.00 0.10 0.10 83 1008.3
20260905210649 80 130 0.0 0.0 0.09 0.10 0.10 93 1008.5
20260905205149 78 121 0.0 0.0 0.10 0.10 0.10 95 1008.7
20260905203649 77 121 0.0 0.0 0.10 0.10 0.10 94 1008.8
20260905202149 78 109 0.0 0.9 0.10 0.10 0.10 91 1008.4
20260905200649 82 92 0.9 4.3 0.01 0.01 0.01 77 1008.7
20260905195149 90 106 1.7 6.1 0.00 0.00 0.00 69 1009.0
20260905193649 96 240 0.9 2.6 0.00 0.00 0.00 55 1008.3
20260905192149 94 233 0.9 0.9 0.00 0.00 0.00 60 1008.5
20260905190649 93 213 0.9 2.6 0.00 0.00 0.00 59 1008.5
20260905185149 92 217 0.0 1.7 0.00 0.00 0.00 64 1008.9
20260905183649 92 86 0.0 0.9 0.00 0.00 0.00 68 1008.7
20260905182149 93 74 0.0 0.0 0.00 0.00 0.00 61 1009.0
20260905180649 96 74 0.0 0.9 0.00 0.00 0.00 58 1009.3
20260905175149 97 202 0.0 0.9 0.00 0.00 0.00 56 1009.1
20260905173649 96 130 0.9 1.7 0.00 0.00 0.00 61 1009.3
20260905172149 95 86 0.0 0.9 0.00 0.00 0.00 56 1009.6
20260905170649 94 237 0.0 1.7 0.00 0.00 0.00 58 1009.7
20260905165149 93 232 0.0 0.9 0.00 0.00 0.00 62 1009.8
20260905163649 92 238 0.0 0.9 0.00 0.00 0.00 66 1010.1
20260905162149 92 243 0.0 1.7 0.00 0.00 0.00 72 1010.3
20260905160649 91 246 0.0 0.9 0.00 0.00 0.00 72 1010.3
20260905155149 89 58 0.0 1.7 0.00 0.00 0.00 73 1010.5
20260905153650 88 237 0.0 1.7 0.00 0.00 0.00 77 1010.7
20260905152149 86 89 0.0 1.7 0.00 0.00 0.00 80 1010.8
20260905150650 85 242 0.0 0.0 0.00 0.00 0.00 81 1010.8
20260905145150 83 240 0.0 0.9 0.00 0.00 0.00 83 1010.9
20260905143650 83 243 0.0 0.9 0.00 0.00 0.00 84 1011.1
20260905142150 82 75 0.0 0.0 0.00 0.00 0.00 86 1011.0
20260905140650 80 75 0.0 0.9 0.00 0.00 0.00 89 1011.1
20260905135150 79 75 0.0 0.9 0.00 0.00 0.00 91 1011.2
20260905133650 79 75 0.0 0.0 0.00 0.00 0.00 92 1011.3
20260905132150 78 75 0.0 0.0 0.00 0.00 0.00 92 1011.4